Home   Weather   Olongapo   Past weeks

Flag for Philippines Past Weather in Olongapo, Philippines — Yesterday and Last 2 Weeks

Now
75 °F

Partly sunny.


Feels Like: 77 °F
Forecast: 76 / 85 °F
Wind: 8 mph from Northeast

Location: Subic Bay Weather Station

Current Time: Jan 22, 2017 at 8:04:28 am

Latest Report: Jan 22, 2017 at 7:00 am


Visibility: N/A

Pressure: 30.01 "Hg

Humidity: 65%

Dew Point: 63 °F

Location of OlongapoLocation

Past Weather in Olongapo — Graph

°F

Olongapo Temperature Yesterday

Maximum temperature yesterday: 88 °F (at 3:00 pm)
Minimum temperature yesterday: 75 °F (at 12:00 am)
Average temperature yesterday: 80 °F

High & Low Weather Summary for the Past Weeks

 TemperatureHumidityPressure
High90 °F (Jan 13, 12:00 pm)89% (Jan 14, 11:00 pm)30.01 "Hg (Jan 14, 11:00 pm)
Low68 °F (Jan 8, 6:00 am)29% (Jan 8, 4:00 pm)29.71 "Hg (Jan 7, 2:00 pm)
Average79 °F65%29.85 "Hg
* Reported Jan 7 7:00 am — Jan 22 7:00 am, Olongapo, Weather by CustomWeather, © 2017

Note: Actual official high and low records may vary slightly from our data, if they occured in-between our weather recording intervals... More about our weather records

Advertising

Olongapo Weather History for the Previous 24 Hours

Scroll right to see more
 ConditionsComfort  
Time TempWeatherWind HumidityBarometerVisibility
7:00 am
Sun, Jan 22
75 °FPartly sunny.8 mph65%30.01 "HgN/A
6:00 am75 °FPassing clouds.No wind65%29.98 "HgN/A
5:00 am75 °FPassing clouds.6 mph69%29.95 "HgN/A
4:00 am75 °FPassing clouds.No wind65%29.95 "HgN/A
3:00 am77 °FPassing clouds.No wind65%29.95 "HgN/A
2:00 am75 °FPassing clouds.7 mph69%29.98 "HgN/A
1:00 am75 °FPassing clouds.7 mph69%30.01 "HgN/A
12:00 am75 °FPassing clouds.9 mph54%30.01 "HgN/A
11:00 pm
Sat, Jan 21
75 °FPassing clouds.No wind65%30.01 "HgN/A
10:00 pm75 °FPassing clouds.3 mph69%30.01 "HgN/A
9:00 pm75 °FPassing clouds.2 mph69%30.01 "HgN/A
8:00 pm77 °FPassing clouds.No wind65%30.01 "HgN/A
7:00 pm79 °FPassing clouds.No wind61%29.98 "HgN/A
6:00 pm82 °FPassing clouds.12 mph55%29.95 "HgN/A
5:00 pm84 °FScattered clouds.15 mph51%29.92 "HgN/A
4:00 pm86 °FPassing clouds.12 mph46%29.89 "HgN/A
3:00 pm88 °FPassing clouds.12 mph46%29.89 "HgN/A
2:00 pm86 °FPassing clouds.17 mph46%29.92 "HgN/A
1:00 pm86 °FPassing clouds.18 mph46%29.95 "HgN/A
12:00 pm86 °FScattered clouds.18 mph46%29.98 "HgN/A
11:00 am84 °FPassing clouds.16 mph45%30.01 "HgN/A
10:00 am84 °FScattered clouds.14 mph45%30.01 "HgN/A
9:00 am81 °FScattered clouds.14 mph54%29.98 "HgN/A
8:00 am79 °FScattered clouds.7 mph58%29.98 "HgN/A
Weather by CustomWeather, © 2017

See weather overviewHow to use our weather pages